Location: Unspecified
(64.9000°N, 0.0000°E)
Time: 18:16:53
(UTC+00:00)

Transit 2A Rocket - Pass Details

Date: 19 June 2019
Orbit: 591 x 913 km, 66.7° (Epoch: 25 August)

Event Time Altitude Azimuth Distance (km) Brightness Sun altitude
Rises 12:39:20 0° 227° (SW) 3,534 9.0 48.1°
Reaches altitude 10° 12:41:54 10° 225° (SW) 2,579 8.5 48.0°
Maximum altitude 12:47:52 66° 145° (SE) 947 6.7 47.8°
Drops below altitude 10° 12:53:28 10° 64° (ENE) 2,432 7.4 47.7°
Sets 12:55:51 0° 62° (ENE) 3,320 8.0 47.6°
